Location: *
(32.8140°S, 174.6161°E)
Time: 15:51:28
(UTC+00:00)

Meteor 2-20 Rocket - Pass Details

Date: 10 December 2019
Orbit: 940 x 960 km, 82.5° (Epoch: 19 January)

Event Time Altitude Azimuth Distance (km) Brightness Sun altitude
Exits shadow 15:18:51 25° 351° (N) 1,817 5.5 -19.0°
Maximum altitude 15:22:37 84° 265° (W) 958 4.4 -18.4°
Drops below altitude 10° 15:28:47 10° 175° (S) 2,682 7.5 -17.5°
Sets 15:31:17 0° 174° (S) 3,633 8.3 -17.1°
